FW4632 Weather Reports


time (UTC)temp
C
wind
direction
speed
KPH
gust
KPH
rain 1hr
cm
rain 24hr
cm
rain mn
cm
humidity
%
barometer
mb
20260508083015 1 329 1.6 8.0 0.00 0.08 0.08 77 1023.9
20260508081514 1 259 0.0 6.4 0.00 0.08 0.08 78 1023.8
20260508080013 1 319 3.2 11.3 0.03 0.10 0.08 76 1023.7
20260508074516 1 100 4.8 11.3 0.05 0.10 0.08 75 1023.6
20260508073009 0 180 6.4 12.9 0.05 0.10 0.08 76 1023.5
20260508071521 1 116 8.0 11.3 0.05 0.08 0.05 75 1023.3
20260508070006 1 101 6.4 9.7 0.05 0.08 0.05 78 1023.2
20260508064505 0 85 8.0 9.7 0.05 0.05 0.05 80 1023.1
20260508063003 1 103 0.0 3.2 0.05 0.05 0.05 78 1023.1
20260508061604 1 103 0.0 3.2 0.00 0.03 0.00 79 1023.0
20260508060057 0 103 0.0 3.2 0.00 0.03 0.00 81 1022.9
20260508054554 0 103 1.6 3.2 0.00 0.03 0.00 81 1022.8
20260508053051 -1 103 0.0 3.2 0.00 0.03 0.00 83 1022.7
20260508051549 -1 101 3.2 6.4 0.00 0.03 0.00 83 1022.5
20260508050047 -1 119 0.0 3.2 0.00 0.03 0.00 83 1022.3
20260508044545 -1 117 0.0 4.8 0.00 0.03 0.00 84 1022.4
20260508043046 -1 120 0.0 3.2 0.00 0.03 0.00 84 1022.2
20260508041543 -1 121 0.0 3.2 0.00 0.03 0.00 85 1022.1
20260508040041 -1 121 0.0 3.2 0.00 0.03 0.00 84 1022.0
20260508034541 -1 122 0.0 3.2 0.00 0.03 0.00 84 1021.9
20260508033039 -2 121 0.0 3.2 0.00 0.03 0.00 86 1021.9
20260508031538 -2 121 0.0 3.2 0.00 0.03 0.00 85 1021.8
20260508030042 -2 110 0.0 3.2 0.00 0.03 0.00 86 1021.7
20260508024538 -2 110 0.0 3.2 0.00 0.03 0.00 87 1021.6
20260508023032 -2 110 0.0 3.2 0.00 0.03 0.00 87 1021.6
20260508021536 -3 110 0.0 4.8 0.00 0.03 0.00 87 1021.4
20260508020029 -3 118 4.8 6.4 0.00 0.03 0.00 87 1021.1
20260508014527 -3 61 0.0 4.8 0.00 0.03 0.00 89 1021.1
20260508013036 -3 75 4.8 9.7 0.00 0.03 0.00 89 1020.9
20260508011522 -3 180 3.2 4.8 0.00 0.03 0.00 91 1020.7
20260508010019 -2 96 0.0 3.2 0.00 0.03 0.00 92 1020.7
20260508004533 -2 96 0.0 3.2 0.00 0.03 0.00 92 1020.5
20260508003021 -3 97 1.6 6.4 0.00 0.03 0.00 92 1020.4
20260508001517 -2 99 3.2 8.0 0.00 0.03 0.00 94 1020.1
20260508000010 -2 180 3.2 4.8 0.00 0.03 0.00 93 1020.0
20260507234508 -2 63 0.0 3.2 0.00 0.03 0.00 93 1020.0
20260507233006 -2 53 0.0 3.2 0.00 0.03 0.00 93 1019.8
20260507231505 -2 53 0.0 3.2 0.00 0.03 0.00 93 1019.7
20260507230004 -2 105 3.2 8.0 0.00 0.03 0.00 93 1019.6
20260507224502 -1 98 6.4 11.3 0.00 0.03 0.00 93 1019.5
20260507223101 -1 143 1.6 3.2 0.00 0.03 0.00 93 1019.5
20260507221556 -1 146 1.6 3.2 0.00 0.03 0.00 93 1019.4
20260507220052 -1 200 0.0 3.2 0.00 0.03 0.03 93 1019.3
20260507214614 -1 207 0.0 1.6 0.00 0.03 0.03 93 1019.2
20260507213103 -1 207 0.0 1.6 0.00 0.03 0.03 93 1019.1
20260507211605 0 207 0.0 3.2 0.00 0.03 0.03 93 1019.0
20260507210053 0 207 0.0 3.2 0.00 0.03 0.03 92 1018.9
20260507204547 0 295 1.6 4.8 0.00 0.03 0.03 93 1018.8
20260507203052 0 332 3.2 9.7 0.00 0.03 0.03 92 1018.8
20260507201546 0 328 8.0 11.3 0.00 0.03 0.03 90 1018.6
20260507200042 0 180 1.6 3.2 0.00 0.03 0.03 88 1018.4
20260507194608 0 247 0.0 3.2 0.00 0.03 0.03 87 1018.2
20260507193038 0 247 0.0 3.2 0.00 0.03 0.03 86 1018.1
20260507191542 0 248 3.2 4.8 0.00 0.03 0.03 87 1017.9
20260507190036 0 253 3.2 8.0 0.00 0.03 0.03 86 1017.8
20260507184539 0 254 6.4 9.7 0.00 0.03 0.03 86 1017.7
20260507183037 0 268 3.2 8.0 0.00 0.03 0.03 86 1017.6
20260507181531 0 261 4.8 9.7 0.00 0.03 0.03 85 1017.5
20260507180032 0 180 8.0 9.7 0.00 0.03 0.03 84 1017.5
20260507174539 0 180 4.8 11.3 0.00 0.03 0.03 85 1017.3
20260507173035 1 233 3.2 11.3 0.00 0.03 0.03 86 1017.3
20260507171527 1 281 8.0 12.9 0.00 0.03 0.03 85 1017.1
20260507170025 1 255 6.4 12.9 0.00 0.03 0.03 86 1017.1
20260507164524 0 240 6.4 9.7 0.00 0.03 0.03 86 1016.9
20260507163023 0 255 8.0 11.3 0.00 0.03 0.03 88 1016.9
20260507161521 0 180 6.4 14.5 0.00 0.03 0.03 89 1016.8
20260507160023 0 281 6.4 16.1 0.00 0.03 0.03 90 1016.8
20260507154530 0 180 17.7 29.0 0.00 0.03 0.03 90 1016.7
20260507153030 0 277 17.7 24.1 0.00 0.03 0.03 87 1016.5
20260507151519 1 294 1.6 6.4 0.00 0.03 0.03 78 1016.5
20260507150016 2 224 0.0 4.8 0.00 0.03 0.03 76 1016.5
20260507144514 1 209 0.0 4.8 0.00 0.03 0.03 77 1016.3
20260507143021 1 305 0.0 3.2 0.00 0.03 0.03 79 1016.2
20260507141512 1 316 3.2 4.8 0.00 0.03 0.03 80 1016.2
20260507140013 1 319 1.6 6.4 0.00 0.03 0.03 79 1016.1
20260507134510 1 124 0.0 3.2 0.00 0.03 0.03 84 1016.1
20260507133009 1 110 1.6 8.0 0.00 0.03 0.03 87 1016.0
20260507131516 0 330 4.8 11.3 0.00 0.03 0.03 90 1016.0
20260507130012 0 307 9.7 27.4 0.00 0.03 0.03 90 1016.0
20260507124504 1 293 17.7 24.1 0.00 0.03 0.03 75 1015.7
20260507123004 1 276 8.0 14.5 0.00 0.03 0.03 70 1015.5
20260507121502 1 272 3.2 8.0 0.00 0.03 0.03 69 1015.6
20260507120001 1 271 0.0 8.0 0.00 0.05 0.03 69 1015.5
20260507114604 2 319 0.0 4.8 0.00 0.05 0.03 68 1015.4
20260507113101 2 47 0.0 3.2 0.00 0.05 0.03 67 1015.3
20260507111556 1 58 4.8 9.7 0.00 0.05 0.03 68 1015.2
20260507110054 2 82 1.6 6.4 0.00 0.05 0.03 70 1015.2
20260507104551 1 79 3.2 8.0 0.00 0.05 0.03 70 1015.1
20260507103050 2 105 3.2 8.0 0.00 0.05 0.03 70 1015.0
20260507101549 1 63 4.8 9.7 0.00 0.05 0.03 73 1015.0
20260507100047 1 79 6.4 11.3 0.00 0.08 0.03 73 1014.9
20260507094541 1 180 3.2 8.0 0.00 0.08 0.03 73 1014.9
20260507093045 0 84 3.2 12.9 0.00 0.08 0.03 75 1014.8
20260507091535 0 77 6.4 12.9 0.00 0.08 0.03 77 1014.8
20260507090034 0 180 8.0 14.5 0.00 0.13 0.03 77 1014.7
20260507084532 0 106 9.7 16.1 0.00 0.13 0.03 77 1014.6